Cruise_ID,Sample,Depth_m,Date_UTC,Time_UTC,Date_EDT,Time_EDT,Latitude,Longitude,Sal_PPT,Temp_C,TCO2,TA,Notes
12BHM03,1,0,5/8/2012,14:35,05/08/12,10:35,28.06392,-85.09072,35.94,26.42,-999,-999,Surface
12BHM03,2,0,5/8/2012,16:29,05/08/12,12:29,28.19155,-85.6997,36.65,25.57,2124.25,-999,Surface
12BHM03,3,0,5/8/2012,17:26,05/08/12,13:26,28.25768,-86.02142,36.76,25.4,2093.34,-999,Surface
12BHM03,4,0,5/8/2012,19:05,05/08/12,15:05,28.37198,-86.57925,36.9,25.51,2079.67,2429.32,Surface
12BHM03,5,0,5/8/2012,20:27,05/08/12,16:27,28.47465,-87.03517,36.88,25.44,2065.34,2420.75,Surface
12BHM03,6,0,5/8/2012,22:28,05/08/12,18:28,28.54338,-87.58838,36.72,25.25,2051.27,2403.25,Surface
12BHM03,7,0,5/8/2012,23:29,05/08/12,19:29,28.52258,-87.69572,36.57,26.11,2086.23,-999.00,Surface
12BHM03,8,0,5/9/2012,0:32,05/08/12,20:32,27.93137,-84.43372,36.71,25.9,2051.44,2408.81,Surface
12BHM03,9,0,5/9/2012,1:42,05/08/12,21:42,28.01047,-84.818,36.73,25.81,2134.87,2398.51,"Surface, Emptied and resampled"
12BHM03,10,0,5/9/2012,2:51,05/08/12,22:51,28.08147,-85.17447,36.69,25.74,2047.97,2396.17,Surface
12BHM03,11,0,5/9/2012,4:04,05/09/12,0:04,28.16338,-85.56267,36.64,25.67,2039.29,2395.54,Surface
12BHM03,12,0,5/9/2012,5:00,05/09/12,1:00,28.22723,-85.87345,36.73,25.16,2039.43,2399.12,"Surface, Sonde hose wasn't in bucket"
12BHM03,12Dup,0,5/9/2012,5:00,05/09/12,1:00,28.22723,-85.87345,36.73,25.16,2040.36,2393.03,"Duplicate, Surface"
12BHM03,13,0,5/9/2012,6:04,05/09/12,2:04,28.30258,-86.24018,36.78,25.98,2038.89,2391.04,Surface
12BHM03,14,0,5/9/2012,7:13,05/09/12,3:13,28.38107,-86.62285,36.69,25.96,2098.48,-999.00,Surface
12BHM03,15,0,5/9/2012,8:00,05/09/12,4:00,28.44207,-86.87962,36.69,25.79,2038.72,2399.37,Surface
12BHM03,16,0,5/9/2012,9:00,05/09/12,5:00,28.50077,-87.22713,36.66,25.46,2029.82,2387.65,Surface
12BHM03,17,0,5/9/2012,10:12,05/09/12,6:12,28.5555,-87.56387,36.6,25.39,2037.92,2390.51,Surface
12BHM03,18,0,5/9/2012,11:20,05/09/12,7:20,28.52137,-87.67877,36.35,25.32,2054.35,2393.05,Surface
12BHM03,19,0,5/9/2012,12:45,05/09/12,8:45,28.53333,-87.79778,36.13,25.38,2050.68,2400.75,Surface
12BHM03,20,0,5/9/2012,13:52,05/09/12,9:52,28.62342,-87.86498,36.27,25.21,2048.65,2398.87,Surface
12BHM03,21,0,5/9/2012,15:14,05/09/12,11:14,28.62725,-87.86887,36.05,25.13,2061.24,2389.87,Surface
12BHM03,22,0,5/9/2012,16:26,05/09/12,12:26,28.6648,-88.04083,35.97,25.67,2042.76,2386.65,Surface
12BHM03,23,0,5/9/2012,17:46,05/09/12,13:46,28.77468,-88.31988,36.04,25.72,2050.09,2395.65,Surface
12BHM03,24,0,5/9/2012,18:58,05/09/12,14:58,28.77213,-88.38945,36.56,25.83,2047.94,2400.44,Surface
12BHM03,24Dup,0,5/9/2012,18:58,05/09/12,14:58,28.77213,-88.38945,36.56,25.83,2061.76,2409.37,"Duplicate, Surface"
12BHM03,25,0,5/9/2012,20:39,05/09/12,16:39,28.78007,-88.40525,36.39,25.86,2049.50,2399.37,Surface
12BHM03,26,0,5/9/2012,21:43,05/09/12,17:43,28.8536,-88.29098,36.58,26.01,2106.43,-999.00,Surface
12BHM03,42,0,5/11/2012,3:34,05/10/12,23:34,29.07792,-87.89043,34.58,24.66,2012.77,2314.94,Surface
12BHM03,43,0,5/11/2012,7:06,05/11/12,3:06,29.16642,-87.84233,33.46,24.71,1995.67,2297.65,Surface
12BHM03,58,0,5/12/2012,6:43,05/12/12,2:43,29.72153,-86.43358,35.89,24.06,2053.37,2381.07,Surface
12BHM03,59,0,5/12/2012,10:08,05/12/12,6:08,29.7953,-86.33778,35.85,24.51,2061.73,2385.51,Surface
12BHM03,70,0,5/13/2012,23:09,05/13/12,19:09,29.08053,-87.27083,35.18,25.04,2021.42,2346.93,Surface
12BHM03,71,0,5/14/2012,1:57,05/13/12,21:57,29.41738,-86.65867,36.43,25.74,2038.49,2383.80,Surface
12BHM03,72,0,5/14/2012,4:00,05/14/12,0:00,29.40407,-86.72788,36.46,25.43,2043.83,2388.02,Surface
12BHM03,73,0,5/14/2012,7:05,05/14/12,3:05,29.39487,-86.76195,36.46,25.42,2046.09,2382.59,Surface
12BHM03,74,0,5/14/2012,10:22,05/14/12,6:22,29.12003,-87.26845,34.48,24.86,2023.13,2338.36,Surface
12BHM03,78,0,5/14/2012,17:38,05/14/12,13:38,29.61408,-87.26853,35.8,26.05,2032.32,2369.50,Surface
12BHM03,79,0,5/14/2012,22:53,05/14/12,18:53,30.33265,-87.28173,35.68,26.18,2057.20,2376.65,Surface
12BHM03,79Dup,0,5/14/2012,22:53,05/14/12,18:53,30.33265,-87.28173,35.68,26.18,2031.55,2364.78,"Duplicate, Surface"
12BHM03,80,0,5/15/2012,3:06,05/14/12,23:06,29.02572,-87.29033,36.14,25.26,2053.84,2392.18,"PCB11, Surface, CTD broken took flowthrough at station surface"
12BHM03,81,0,5/15/2012,6:07,05/15/12,2:07,29.74838,-87.26683,35.84,25.4,2034.90,2376.70,"PCB06, Surface, CTD broken took flowthrough at station surface"
12BHM03,82,0,5/15/2012,10:02,05/15/12,6:02,30.33265,-87.28173,36.18,24.55,1979.58,2277.79,Surface
12BHM03,83,0,5/15/2012,10:59,05/15/12,6:59,30.33265,-87.28173,35.34,24.34,2030.74,2341.18,Surface
12BHM03,84,0,5/15/2012,12:10,05/15/12,8:10,30.33265,-87.28173,35.1,24.59,2035.87,2383.03,Surface
12BHM03,85,0,5/15/2012,13:21,05/15/12,9:21,30.33265,-87.28173,33.99,24.72,2052.21,2296.74,Surface
12BHM03,86,0,5/15/2012,14:55,05/15/12,10:55,30.33265,-87.28173,33.34,24.31,2012.37,2261.70,Surface
